This is the latest recevied weather packets stored in our database for station/object LRBC. If no packets are shown the sender has not sent any weather packets the latest 10 day(s).
| Time | Temp. | Humidity | Pressure | Rain* | Wind** | Luminosity | Snow |
|---|---|---|---|---|---|---|---|
| 1777729724 | 12.78° C | 44% | 1023 hPa | - | - | - | - |
| 1777728828 | 12.78° C | 44% | 1023 hPa | - | - | - | - |
| 1777727927 | 12.78° C | 44% | 1023 hPa | - | - | - | - |
| 1777726128 | 12.22° C | 51% | 1023 hPa | - | - | - | - |
| 1777725227 | 12.22° C | 51% | 1023 hPa | - | - | - | - |
| 1777724327 | 11.11° C | 54% | 1024 hPa | - | - | - | - |
| 1777723435 | 11.11° C | 54% | 1024 hPa | - | - | - | - |
| 1777722521 | 11.11° C | 62% | 1024 hPa | - | - | - | - |
| 1777721627 | 11.11° C | 62% | 1024 hPa | - | - | - | - |
| 1777720727 | 10° C | 71% | 1024 hPa | - | - | - | - |
| 1777719827 | 10° C | 71% | 1024 hPa | - | - | - | - |
| 1777718927 | 11.11° C | 62% | 1024 hPa | - | - | - | - |
| 1777718028 | 11.11° C | 62% | 1024 hPa | - | - | - | - |
| 1777717124 | 10° C | 71% | 1024 hPa | - | - | - | - |
| 1777716227 | 10° C | 71% | 1024 hPa | - | - | - | - |
| 1777715324 | 8.89° C | 82% | 1024 hPa | - | - | - | - |
| 1777714509 | 8.89° C | 82% | 1024 hPa | - | - | - | - |
| 1777713527 | 8.89° C | 71% | 1024 hPa | - | - | - | - |
| 1777712627 | 8.89° C | 71% | 1024 hPa | - | - | - | - |
| 1777711735 | 11.11° C | 62% | 1024 hPa | - | - | - | - |
| 1777710828 | 11.11° C | 62% | 1024 hPa | - | - | - | - |
| 1777709927 | 11.11° C | 72% | 1024 hPa | - | - | - | - |
| 1777709027 | 11.11° C | 72% | 1024 hPa | - | - | - | - |
| 1777708127 | 10° C | 67% | 1024 hPa | - | - | - | - |
| 1777707227 | 10° C | 67% | 1024 hPa | - | - | - | - |
* Rain since midnight (hover to see other rain measurements)
** Current wind speed in m/s (hover to see current wind gust speed)